Weather History for Sharurah, Saudi Arabia

Change the Weather History Date:

Saturday, January 5, 2013

  Actual Average Record
Temperature  
Mean Temperature 66 °F -  
Max Temperature 86 °F 77 °F 89 °F (1998)
Min Temperature 46 °F 52 °F 41 °F (2007)
Cooling Degree Days 1    
Growing Degree Days 16 (Base 50)    
Moisture  
Dew Point 35 °F    
Average Humidity 28    
Maximum Humidity 43    
Minimum Humidity 13    
Precipitation  
Precipitation 0.00 in - - ()
Sea Level Pressure  
Sea Level Pressure 29.98 in    
Wind  
Wind Speed 3 mph ()    
Max Wind Speed 12 mph    
Max Gust Speed -    
Visibility 6.0 miles    
Events      
Averages and records for this station are not official NWS values.
T = Trace of Precipitation, MM = Missing Value Source: Averaged Metar Reports

Daily Weather History Graph

Daily Weather History Graph

Search for Another Location

Airport:

Trip Planner

Search our weather history database for the weather conditions in past years. The results will help you decide how hot, cold, wet, or windy it might be!

Date:

Astronomy

Jan. 05, 2013 Rise Set
Actual Time 6:23 AM AST 5:30 PM AST
Civil Twilight 5:59 AM AST 5:54 PM AST
Nautical Twilight 5:32 AM AST 6:21 PM AST
Astronomical Twilight 5:06 AM AST 6:47 PM AST
Moon No Moon Rise 11:38 AM AST (1/5)
Length of Visible Light 11h 54m
Length of Day
11h 07m
Waning Gibbous, 48% of the Moon is Illuminated
Jan 5
Waning Gibbous
Jan 11
New
Jan 19
First Quarter
Jan 27
Full
Feb 3
Last Quarter

Hourly Weather History & Observations

Time (AST) Temp. Dew Point Humidity Pressure Visibility Wind Dir Wind Speed Gust Speed Precip Events Conditions
12:00 AM 59 °F 30 °F 22% 30.01 in 6 mi East 4.6 mph - -  
12:00 AM 59.0 °F 30.2 °F 34% 30.09 in - East 4.6 mph - N/A   Clear
1:00 AM 57.2 °F 30.2 °F 36% 30.06 in - ENE 4.6 mph - N/A   Clear
2:00 AM 57.2 °F 30.2 °F 36% 30.06 in - Calm Calm - N/A   Clear
3:00 AM 57 °F 32 °F 27% 29.99 in 6 mi Calm Calm - -  
3:00 AM 57.2 °F 32.0 °F 38% 30.06 in - Calm Calm - N/A   Clear
4:00 AM 55.4 °F 32.0 °F 41% 30.04 in - Calm Calm - N/A   Clear
6:00 AM 49 °F 27 °F 29% 30.01 in 6 mi Calm Calm - -  
6:00 AM 50.0 °F 26.6 °F 40% 30.04 in - Calm Calm - N/A   Clear
7:00 AM 50.0 °F 28.4 °F 43% 30.06 in - Calm Calm - N/A   Clear
8:00 AM 59.0 °F 33.8 °F 39% 30.06 in - Calm Calm - N/A   Clear
9:00 AM 64 °F 34 °F 21% 30.04 in 6 mi East 4.6 mph - -  
9:00 AM 64.4 °F 33.8 °F 32% 30.09 in - East 4.6 mph - N/A   Clear
10:00 AM 69.8 °F 35.6 °F 28% 30.09 in - East 8.1 mph - N/A   Clear
11:00 AM 73.4 °F 39.2 °F 29% 30.04 in - East 10.4 mph - N/A   Clear
12:00 PM 76 °F 37 °F 15% 29.93 in 6 mi ESE 8.1 mph - -  
12:00 PM 77.0 °F 37.4 °F 24% 30.01 in - ESE 8.1 mph - N/A   Clear
1:00 PM 78.8 °F 37.4 °F 23% 29.98 in - Calm Calm - N/A   Clear
2:00 PM 80.6 °F 37.4 °F 21% 29.92 in - Calm Calm - N/A   Clear
3:00 PM 84 °F 41 °F 13% 29.82 in 6 mi Calm Calm - -  
3:00 PM 84.2 °F 41.0 °F 22% 29.92 in - Calm Calm - N/A   Clear
4:00 PM 84.2 °F 41.0 °F 22% 29.89 in - Calm Calm - N/A   Clear
5:00 PM 82.4 °F 39.2 °F 21% 29.92 in - Calm Calm - N/A   Clear
6:00 PM 80 °F 41 °F 15% 29.85 in 6 mi East 6.9 mph - -  
6:00 PM 80.6 °F 41.0 °F 24% 29.92 in - East 6.9 mph - N/A   Clear
7:00 PM 77.0 °F 39.2 °F 26% 29.95 in - East 5.8 mph - N/A   Clear
8:00 PM 73.4 °F 37.4 °F 27% 29.95 in - East 5.8 mph - N/A   Clear
9:00 PM 72 °F 37 °F 18% 29.87 in 6 mi ENE 8.1 mph - -  
9:00 PM 71.6 °F 37.4 °F 29% 29.95 in - ENE 8.1 mph - N/A   Clear
10:00 PM 69.8 °F 37.4 °F 31% 29.95 in - ENE 10.4 mph - N/A   Clear
11:00 PM 68.0 °F 37.4 °F 33% 29.95 in - East 11.5 mph - N/A   Clear